Weather History for Storm Lake, IA

Change the Weather History Date:

Thursday, March 21, 2013

  Actual Average Record
Temperature  
Mean Temperature 18 °F -  
Max Temperature 28 °F 43 °F 71 °F (2007)
Min Temperature 8 °F 27 °F 8 °F (2013)
Degree Days  
Heating Degree Days 47    
Moisture  
Dew Point 11 °F    
Average Humidity 76    
Maximum Humidity 86    
Minimum Humidity 68    
Precipitation  
Precipitation 0.00 in - - ()
Sea Level Pressure  
Sea Level Pressure 30.01 in    
Wind  
Wind Speed 9 mph (East)    
Max Wind Speed 14 mph    
Max Gust Speed 13 mph    
Visibility 10 miles    
Events      
Averages and records for this station are not official NWS values.
T = Trace of Precipitation, MM = Missing Value Source: NWS Daily Summary

Daily Weather History Graph

Daily Weather History Graph

Search for Another Location

Airport:

Trip Planner

Search our weather history database for the weather conditions in past years. The results will help you decide how hot, cold, wet, or windy it might be!

Date:

Astronomy

Mar. 21, 2013 Rise Set
Actual Time 7:21 AM CDT 7:34 PM CDT
Civil Twilight 6:53 AM CDT 8:02 PM CDT
Nautical Twilight 6:20 AM CDT 8:35 PM CDT
Astronomical Twilight 5:47 AM CDT 9:09 PM CDT
Moon 1:59 PM CDT (3/21) 3:50 AM CDT (3/21)
Length of Visible Light 13h 09m
Length of Day
12h 12m
Waxing Gibbous, 69% of the Moon is Illuminated
Mar 21
Waxing Gibbous
Mar 27
Full
Apr 2
Last Quarter
Apr 10
New
Apr 18
First Quarter

Hourly Weather History & Observations

Time (CDT) Temp. Windchill Dew Point Humidity Pressure Visibility Wind Dir Wind Speed Gust Speed Precip Events Conditions
12:15 AM 15.8 °F 2.1 °F 8.6 °F 73% 30.09 in 10.0 mi NNE 12.7 mph - N/A   Clear
12:35 AM 14.0 °F 1.2 °F 8.6 °F 79% 30.09 in 10.0 mi NNE 10.4 mph - N/A   Clear
1:15 AM 14.0 °F 0.5 °F 6.8 °F 73% 30.09 in 10.0 mi NNE 11.5 mph - N/A   Clear
1:35 AM 14.0 °F 3.9 °F 6.8 °F 73% 30.08 in 10.0 mi NE 6.9 mph - N/A   Clear
1:55 AM 12.2 °F -0.2 °F 6.8 °F 79% 30.08 in 10.0 mi NE 9.2 mph - N/A   Clear
2:15 AM 12.2 °F 0.7 °F 5.0 °F 73% 30.08 in 10.0 mi NE 8.1 mph - N/A   Clear
2:35 AM 12.2 °F 4.3 °F 6.8 °F 79% 30.08 in 10.0 mi NE 4.6 mph - N/A   Clear
2:55 AM 10.4 °F -1.5 °F 5.0 °F 79% 30.07 in 10.0 mi ENE 8.1 mph - N/A   Clear
3:15 AM 10.4 °F 0.8 °F 5.0 °F 79% 30.06 in 10.0 mi ENE 5.8 mph - N/A   Clear
3:35 AM 10.4 °F -0.4 °F 5.0 °F 79% 30.06 in 10.0 mi ENE 6.9 mph - N/A   Clear
3:55 AM 10.4 °F -2.4 °F 5.0 °F 79% 30.04 in - NE 9.2 mph - N/A   Clear
4:15 AM 10.4 °F -4.1 °F 3.2 °F 73% 30.04 in 10.0 mi ENE 11.5 mph - N/A   Clear
4:35 AM 10.4 °F 0.8 °F 3.2 °F 73% 30.05 in 10.0 mi ENE 5.8 mph - N/A   Clear
4:55 AM 10.4 °F 4.0 °F 3.2 °F 73% 30.05 in 10.0 mi ENE 3.5 mph - N/A   Clear
5:15 AM 10.4 °F 2.2 °F 3.2 °F 73% 30.05 in 10.0 mi ENE 4.6 mph - N/A   Clear
5:35 AM 8.6 °F 0.1 °F 3.2 °F 79% 30.05 in 10.0 mi ENE 4.6 mph - N/A   Clear
5:55 AM 8.6 °F -1.3 °F 3.2 °F 79% 30.04 in 10.0 mi ENE 5.8 mph - N/A   Clear
6:15 AM 8.6 °F - 3.2 °F 79% 30.05 in 10.0 mi Calm Calm - N/A   Clear
6:35 AM 8.6 °F -1.3 °F 3.2 °F 79% 30.04 in 10.0 mi East 5.8 mph - N/A   Clear
6:55 AM 8.6 °F -2.6 °F 3.2 °F 79% 30.04 in 10.0 mi ENE 6.9 mph - N/A   Clear
7:15 AM 8.6 °F -5.5 °F 3.2 °F 79% 30.04 in 10.0 mi ENE 10.4 mph - N/A   Clear
7:35 AM 8.6 °F -3.7 °F 3.2 °F 79% 30.04 in 10.0 mi ENE 8.1 mph - N/A   Clear
7:55 AM 8.6 °F -2.6 °F 5.0 °F 85% 30.04 in 10.0 mi ENE 6.9 mph - N/A   Clear
8:15 AM 10.4 °F -2.4 °F 5.0 °F 79% 30.04 in 10.0 mi East 9.2 mph - N/A   Clear
8:35 AM 10.4 °F -0.4 °F 5.0 °F 79% 30.04 in 10.0 mi East 6.9 mph - N/A   Clear
8:55 AM 12.2 °F 0.7 °F 5.0 °F 73% 30.04 in 10.0 mi ESE 8.1 mph - N/A   Clear
9:15 AM 12.2 °F 1.7 °F 5.0 °F 73% 30.03 in 10.0 mi ESE 6.9 mph - N/A   Clear
9:35 AM 14.0 °F 2.9 °F 6.8 °F 73% 30.03 in 10.0 mi ESE 8.1 mph - N/A   Clear
9:55 AM 14.0 °F 5.1 °F 6.8 °F 73% 30.02 in 10.0 mi ESE 5.8 mph - N/A   Clear
10:15 AM 14.0 °F 3.9 °F 6.8 °F 73% 30.02 in 10.0 mi SE 6.9 mph - N/A   Clear
10:35 AM 15.8 °F 5.1 °F 8.6 °F 73% 30.02 in 10.0 mi SE 8.1 mph - N/A   Clear
10:55 AM 15.8 °F 7.2 °F 8.6 °F 73% 30.02 in 10.0 mi SE 5.8 mph - N/A   Clear
11:15 AM 17.6 °F 7.3 °F 10.4 °F 73% 30.02 in 10.0 mi SE 8.1 mph - N/A   Clear
11:35 AM 19.4 °F 10.4 °F 10.4 °F 68% 30.01 in 10.0 mi ESE 6.9 mph - N/A   Clear
11:55 AM 19.4 °F 9.5 °F 12.2 °F 74% 30.01 in 10.0 mi ESE 8.1 mph - N/A   Clear
12:15 PM 21.2 °F 11.7 °F 12.2 °F 68% 30.00 in 10.0 mi ESE 8.1 mph - N/A   Clear
12:35 PM 21.2 °F 10.9 °F 12.2 °F 68% 30.00 in 10.0 mi East 9.2 mph - N/A   Clear
12:55 PM 21.2 °F 10.1 °F 14.0 °F 74% 29.99 in 10.0 mi East 10.4 mph - N/A   Clear
1:15 PM 23.0 °F 13.1 °F 14.0 °F 68% 29.99 in 10.0 mi East 9.2 mph - N/A   Clear
1:35 PM 23.0 °F 13.1 °F 14.0 °F 68% 29.99 in 10.0 mi East 9.2 mph - N/A   Clear
1:55 PM 24.8 °F 15.3 °F 15.8 °F 69% 29.98 in 10.0 mi East 9.2 mph - N/A   Clear
2:15 PM 24.8 °F 14.0 °F 15.8 °F 69% 29.97 in 10.0 mi East 11.5 mph - N/A   Clear
2:35 PM 24.8 °F 13.4 °F 17.6 °F 74% 29.97 in 10.0 mi East 12.7 mph - N/A   Clear
2:55 PM 26.6 °F 18.2 °F 17.6 °F 69% 29.96 in 10.0 mi ESE 8.1 mph - N/A   Clear
3:15 PM 26.6 °F 16.8 °F 17.6 °F 69% 29.96 in 10.0 mi ESE 10.4 mph - N/A   Clear
3:35 PM 26.6 °F 19.1 °F 19.4 °F 74% 29.95 in 10.0 mi ESE 6.9 mph - N/A   Clear
3:55 PM 26.6 °F 16.2 °F 17.6 °F 69% 29.94 in 10.0 mi East 11.5 mph - N/A   Clear
4:15 PM 26.6 °F 20.0 °F 17.6 °F 69% 29.94 in 10.0 mi Variable 5.8 mph 12.7 mph N/A   Clear
4:35 PM 26.6 °F 17.5 °F 19.4 °F 74% 29.94 in 10.0 mi East 9.2 mph - N/A   Clear
4:55 PM 26.6 °F 17.5 °F 19.4 °F 74% 29.93 in 10.0 mi East 9.2 mph - N/A   Clear
5:15 PM 26.6 °F 17.5 °F 17.6 °F 69% 29.94 in 10.0 mi ENE 9.2 mph - N/A   Clear
5:35 PM 28.4 °F 19.1 °F 19.4 °F 69% 29.94 in 10.0 mi East 10.4 mph - N/A   Clear
5:55 PM 28.4 °F 19.1 °F 19.4 °F 69% 29.94 in 10.0 mi East 10.4 mph - N/A   Clear
6:15 PM 26.6 °F 15.7 °F 19.4 °F 74% 29.94 in 10.0 mi ENE 12.7 mph - N/A   Clear
6:35 PM 26.6 °F 15.7 °F 19.4 °F 74% 29.94 in 10.0 mi ENE 12.7 mph - N/A   Clear
6:55 PM 24.8 °F 12.9 °F 19.4 °F 80% 29.94 in 10.0 mi ENE 13.8 mph - N/A   Clear
7:15 PM 24.8 °F 12.9 °F 17.6 °F 74% 29.95 in 10.0 mi ENE 13.8 mph - N/A   Clear
7:35 PM 23.0 °F 11.7 °F 17.6 °F 80% 29.96 in 10.0 mi ENE 11.5 mph - N/A   Clear
7:55 PM 23.0 °F 11.7 °F 17.6 °F 80% 29.97 in 10.0 mi ENE 11.5 mph - N/A   Clear
8:15 PM 23.0 °F 11.7 °F 17.6 °F 80% 29.97 in 10.0 mi ENE 11.5 mph - N/A   Clear
8:35 PM 23.0 °F 11.7 °F 17.6 °F 80% 29.98 in 10.0 mi East 11.5 mph - N/A   Clear
8:55 PM 23.0 °F 11.1 °F 15.8 °F 74% 29.98 in 10.0 mi East 12.7 mph - N/A   Clear
9:15 PM 21.2 °F 8.9 °F 17.6 °F 86% 29.98 in 10.0 mi East 12.7 mph - N/A   Clear
9:55 PM 21.2 °F 10.9 °F 15.8 °F 80% 29.99 in 10.0 mi ENE 9.2 mph - N/A   Clear
10:15 PM 21.2 °F 11.7 °F 15.8 °F 80% 30.00 in 10.0 mi East 8.1 mph - N/A   Clear
10:35 PM 21.2 °F 11.7 °F 17.6 °F 86% 30.00 in 10.0 mi ENE 8.1 mph - N/A   Clear
10:55 PM 19.4 °F 10.4 °F 15.8 °F 86% 30.00 in 10.0 mi ENE 6.9 mph - N/A   Clear
11:15 PM 19.4 °F 10.4 °F 15.8 °F 86% 30.00 in 10.0 mi ENE 6.9 mph - N/A   Clear
11:35 PM 19.4 °F 10.4 °F 15.8 °F 86% 30.01 in 10.0 mi ENE 6.9 mph - N/A   Clear
11:55 PM 19.4 °F 9.5 °F 15.8 °F 86% 30.01 in 10.0 mi ENE 8.1 mph - N/A   Clear